OBJECT B, 65545

Orbit data source: Space-Track

You're viewing an Uncataloged Satellite

Recently launched and/or uncataloged satellites may have evolving metadata. Metadata may include but not limited to: Owner, Maufacturer, Bus, Motor, and Mission.

OBJECT B, 65545 is a satellite owned by CAST (CN) in LEO that was launched on Sat, 06 Sep 2025 UTC via a CHANG ZHENG 6A launch vehicle from the Taiyaun Space Center, China (TSC). Unknown objects in Earth's orbit typically refer to objects detected orbiting the Earth but have not yet been identified or cataloged. These objects could be anything from previously untracked satellites, spent rocket stages, debris from satellite collisions, or even natural meteoroids temporarily captured by Earth's gravity.

Loading next visibility...
Identifier
65545, 2025-199B
Orbit
LEO
Country
Flag of CNCN / PRC
Related business
None
Manufacturer
DFH
Mission
Operational spacecraft
Bus & Motor
YG40, Unknown motor
Mass
~500 kg wet, ~500 kg dry
Launch date (UTC)
2025-09-06 (2 weeks ago)
Launch vehicle
CHANG ZHENG 6A
Launch site
Taiyaun Space Center, China (TSC)
Object type
Unknown
Shape & HBR
Unknown
Radar Cross Section
Large (>1 m²)

Expand to show TLE details & history
Last TLE update: 2 days ago

TLE from 2 days ago
0 OBJECT B
1 65545U 25199B   25259.22716156  .00000010  00000-0 -46741-5 0  9993
2 65545  85.9984 167.0084 0004365 309.8832  50.1969 14.15782122  1360
Epoch: 2025-09-16T05:27Z
TLE epoch observation values (Epoch: 2025-09-16T05:27:06.758Z)
Latitude
-0.00001°
Longitude
89.80975°
Altitude
840.655 km
Speed
7.433 km/s
True Right ascension
11h 08m 02s
True Declination
0° 00' 00"
Sunlit
Object was in daylight at epoch
Visualization orbit readout
Latitude
Unknown
Longitude
Unknown
Altitude
Unknown
Speed
Unknown
Apparent Right ascension
Unknown
Apparent Declination
Unknown
Sunlit
N/A
Visualization observer readout
Local Sidereal Time
14:11:02
Azimuth
Unknown
Elevation
Unknown
Doppler factor
Unknown
Orbital elements
Apogee altitude
839.801 km
Perigee altitude
833.503 km
Semi-major axis
7,214.789 km
Eccentricity
0.00044
Inclination
85.9984°
RAAN
167.0084°
Arg. of periapsis
309.8832°
True anomaly
50.23534°
Mean anomaly
50.1969°
Eccentric anomaly
50.21612°
Mean motion
3.54167 °/min
Orbital period
101.65 mins
BSTAR
-0.0000046741
Loading maneuver chart data...
Computing Atmospheric mass density...
Loading historical data...
Loading historical data...
Loading historical data...
Loading historical data...
Loading historical data...
Loading historical data...
Loading historical data...
Other satellites on launch #199 in the year 2025 (2025-09-06 UTC)

Documentation

Showing up to 5 results
|